Starlink 32180

operational
NORAD ID: 60374 Int'l Des: 2024-138 Owner: SPXS Country: US Constellation: starlink
LEOCIRCULAR

Über Starlink 32180

Beschreibung wird geladen...

Live-Position

3D-Globus wird geladen...

Nächste Überflüge

Höhenverlauf

Altitude vs Time

uPlot chart will show altitude changes over time

Zweizeiliger Elementsatz

1 60374U 24138V 25260.65419648 .00002256 00000-0 88301-4 0 9995
2 60374 53.1619 33.4345 0001134 93.6204 266.4927 15.30191381 64134
Epoch: 17. Sept. 2025 • Age: 25 hours

Aktueller Status

Höhe 479.1 km
Geschwindigkeit 7.63 km/s
Subsatellitenpunkt -13.35°S, 129.92°E
Startdatum 4. Aug. 2024
Alter 1.1 years
Typ internet

Technische Details

Klassifizierung Payload
Masse 730.00 kg
Trockenmasse 700.00 kg
Gesamtmasse 730.00 kg
Länge 0.30 m
Durchmesser 4.10 m
Spannweite 29.00 m
Form Box + pan
Hersteller SPXS
Bus-Typ Starlink V2M
Phasenstatus In Orbit
Besitzer/Staat SPXS/US

Große Konstellationen

Loading constellations...